Tracking 33747 objects as of 11-Apr-2026
HD Live streaming from Space Station
objects crossing your sky now

STARLINK-4126

Track STARLINK-4126 now!
10-day predictions
STARLINK-4126 is classified as:


NORAD ID: 52867
Int'l Code: 2022-062AP
Perigee: 546.0 km
Apogee: 547.7 km
Inclination: 53.2 °
Period: 95.4 minutes
Semi major axis: 6917 km
RCS: Unknown
Launch date: June 17, 2022
Source: United States (US)
Launch site: AIR FORCE EASTERN TEST RANGE (AFETR)
Your satellite tracking list
Your tracking list is empty




NASA's NSSDC Master Catalog

Two Line Element Set (TLE):
1 52867U 22062AP  26101.10562131  .00000776  00000-0  66816-4 0  9990
2 52867  53.2173 238.6005 0001213  89.1846 270.9285 15.08842928210821
Source of the keplerian elements: AFSPC